Location: Unspecified
(0.0000°N, 0.0000°E)
Time: 00:32:28
(UTC+01:00)

USA 116 - Visible Passes

Search period start: 18 February 2018 00:00
Search period end: 28 February 2018 00:00
Orbit: 405 x 834 km, 97.9° (Epoch: 18 November)

Date Brightness Start Highest point End Pass type
(mag) Time Alt. Az. Time Alt. Az. Time Alt. Az.
18 Feb 3.6 06:33:22 10° S 06:36:47 58° W 06:40:36 10° NNW visible
19 Feb 4.2 06:46:49 10° SSW 06:50:03 34° W 06:53:38 10° NW visible
20 Feb 7.0 05:27:18 10° E 05:27:52 10° ENE 05:28:26 10° ENE visible
21 Feb 6.6 05:38:33 10° ESE 05:41:02 17° ENE 05:43:40 10° NE visible
22 Feb 5.9 05:51:01 10° SE 05:54:13 27° ENE 05:57:44 10° NNE visible
23 Feb 5.0 06:03:49 10° SSE 06:07:24 43° ENE 06:11:26 10° N visible
24 Feb 4.0 06:16:50 10° SSE 06:20:37 72° ENE 06:24:54 10° N visible
25 Feb 3.8 06:30:02 10° S 06:33:52 70° W 06:38:12 10° NNW visible
26 Feb 4.2 06:43:25 10° S 06:47:08 43° W 06:51:19 10° NNW visible
27 Feb 7.2 05:23:45 10° E 05:25:01 11° ENE 05:26:19 10° ENE visible
